Regional Weather Roundup
Issued by NWS

Home | Current Version | Previous Version | Graphics & Text | Print | Product List | Glossary Off
Versions: 1 2 3 4 5 6 7 8 9 10 11 12 13 14 15 16 17 18 19 20 21 22 23 24 25 26 27 28 29 30 31 32 33 34 35 36 37 38 39 40 41 42 43 44 45 46 47 48 49 50

000
ASUS43 KMKX 030100
RWRWI

WISCONSIN REGIONAL WEATHER ROUNDUP
NATIONAL WEATHER SERVICE MILWAUKEE/SULLIVAN WI
800 PM CDT THU JUL 02 2015

NOTE: "FAIR" INDICATES FEW OR NO CLOUDS BELOW 12,000 FEET WITH NO
SIGNIFICANT WEATHER AND/OR OBSTRUCTIONS TO VISIBILITY.

WIZ001-002-006>008-014>016-023>028-030200-
NORTHWEST WISCONSIN

CITY           SKY/WX    TMP DP  RH WIND       PRES   REMARKS
SUPERIOR ARPT  CLEAR     73  59  62 SW7       29.94S
ASHLAND        PTCLDY    69  59  70 SW6       29.95F
HAYWARD        CLEAR     70  55  59 S5        29.98F
SIREN          CLEAR     73  53  51 CALM      29.97F
CUMBERLAND     CLEAR     70  54  56 S3        29.98F
RICE LAKE      CLEAR     72  54  54 CALM      30.00F
CHETEK         CLEAR     72  55  55 CALM      29.99S
LADYSMITH      CLEAR     71  55  58 CALM      30.01F
EAU CLAIRE     NOT AVBL
MENOMONIE      CLEAR     72  55  54 S5        29.98F
NEW RICHMOND   CLEAR     70  56  59 SW3       29.98F
OSCEOLA        CLEAR     73  55  53 S5        30.00S
$$

WIZ003>005-009-010-017-018-030200-
NORTH CENTRAL WISCONSIN

CITY           SKY/WX    TMP DP  RH WIND       PRES   REMARKS
MANITOWISH WTR PTCLDY    70  55  59 W5        29.99S
ARBOR VITAE    PTCLDY    72  56  58 SW3       30.00S
WOODRUFF       PTCLDY    72  56  58 SW3       30.00S
RHINELANDER    CLEAR     69  52  54 SW5       30.01S
EAGLE RIVER    PTCLDY    68  52  55 CALM      30.00S
LAND O LAKES   PTCLDY    70  54  56 CALM      30.00S
PHILLIPS       CLEAR     69  55  60 CALM      29.99F
TOMAHAWK       CLEAR     68  56  65 CALM      30.01S
MEDFORD        CLEAR     69  54  58 S5        30.01F
MERRILL        PTCLDY    71  52  51 SW5       30.01S
$$

WIZ029-030-035-036-043>047-030200-
CENTRAL WISCONSIN

CITY           SKY/WX    TMP DP  RH WIND       PRES   REMARKS
WAUSAU         CLEAR     70  50  49 S8        29.99F
MOSINEE        CLEAR     66  54  63 CALM      30.02S
MARSHFIELD     CLEAR     69  50  50 SE5       30.00F
STEVENS POINT  CLEAR     68  50  52 SE3       30.01F
WAUPACA        CLEAR     71  50  48 SE3       30.01F
WAUTOMA        NOT AVBL
WISC RAPIDS    CLEAR     69  48  47 SE5       30.01F
CAMP DOUGLAS   NOT AVBL
$$

WIZ011>013-019>022-031-037>040-048>050-030200-
NORTHEAST WISCONSIN

CITY           SKY/WX    TMP DP  RH WIND       PRES   REMARKS
ANTIGO         CLEAR     64  54  69 S7        30.03S
SHAWANO        CLEAR     70  49  47 SE3       30.02S
OCONTO         CLEAR     68  52  56 CALM      30.02R
STURGEON BAY   CLEAR     64  46  52 CALM      30.05R
GREEN BAY      CLEAR     68  51  54 CALM      30.01F
MANITOWOC      NOT AVBL
APPLETON       CLEAR     66  45  45 SE3       30.02S
CLINTONVILLE   CLEAR     68  48  49 SE3       30.01S
OSHKOSH        CLEAR     67  48  50 E3        30.00F
$$

WIZ032>034-041-042-053>061-030200-
SOUTHWEST WISCONSIN

CITY           SKY/WX    TMP DP  RH WIND       PRES   REMARKS
LA CROSSE      PTCLDY    72  54  53 SE5       29.97S
SPARTA         CLEAR     71  48  45 SE3       30.00R
VIROQUA        PTCLDY    68  53  58 SE6       30.00S
BOSCOBEL       MOCLDY    67  58  72 CALM      29.98F
PRAIRIE DU CHI MOCLDY    68  52  55 CALM      29.98S
PLATTEVILLE    MOCLDY    67  51  57 E3        29.99S
$$

WIZ056-057-062-063-064-067-068-030200-
SOUTH CENTRAL WISCONSIN

CITY           SKY/WX    TMP DP  RH WIND       PRES   REMARKS
REEDSBURG      CLEAR     69  52  55 E5        29.98S
BARABOO/DELLS  CLEAR     68  51  54 CALM      29.99S
LONE ROCK      NOT AVBL
MINERAL POINT  MOCLDY    68  50  52 CALM      30.00S
MADISON        MOCLDY    66  49  54 NE5       29.98S
MIDDLETON      PTCLDY    68  48  47 NE3       29.99S
WATERTOWN      CLEAR     64  45  49 E5        29.98F
MONROE         MOCLDY    64  50  59 NE3       29.98F
JANESVILLE     MOCLDY    64  52  63 E6        29.97S
$$

WIZ051-052-058>065-066-070>072-030200-
SOUTHEAST WISCONSIN

CITY           SKY/WX    TMP DP  RH WIND       PRES   REMARKS
MILWAUKEE      MOCLDY    58  47  66 N9        30.00F
WAUKESHA       CLEAR     63  48  59 NE9       30.00F
MILWAUKEE/TIMM NOT AVBL
RACINE         CLEAR     58  48  69 N10       30.01F
BURLINGTON     CLEAR     62  51  68 E7        29.99S
KENOSHA        PTCLDY    59  49  69 NE6       30.00S
FOND DU LAC    CLEAR     66  47  50 E7        30.00F
SHEBOYGAN      CLEAR     61  46  57 E5        30.02S
WEST BEND      CLEAR     63  48  59 E5        30.01F
JUNEAU         CLEAR     65  45  47 NE6       30.01F
$$

LSZ147-162-030200-
LAKE SUPERIOR

STATION/POSITION TIME  TEMP    WIND        PRES    WAVE
                       AIR SEA DIR/SP/G            HT/PER
                 (UTC) (F)     (DEG/KT/KT) (MB)    (FT/S)
W MID LAKE BUOY  2350   54 39  280/  6/ 12 1013.7F   0
DEVILS ISLAND    0000   69     220/ 10/ 11 1013.3F
SAXON HARBOR     0000   76      CALM  /  4 1013.9F
$$

LMZ867-665-643>646-030200-
LAKE MICHIGAN

STATION/POSITION TIME  TEMP    WIND        PRES    WAVE
                       AIR SEA DIR/SP/G            HT/PER
                 (UTC) (F)     (DEG/KT/KT) (MB)    (FT/S)
CHAMBERS ISLAND  0000   68     160/  3/  5 1016.3S
S GREEN BAY BUOY 2230   70 70  120/  6/  8 1017.6
N MID LAKE BUOY  2350   59 55  220/  2/  2 1016.3F   0
NORTHPORT PIER   0000   63     170/  2/  5 1016.3S
ALGOMA LAKESHORE 2310             CALM       N/A
KEWAUNEE LAKESHO 0000   63      20/  1/  3 1016.1F
SHEBOYGAN LAKESH 0000   59      10/  7/  7 1016.8F
PORT WASHINGTON  0000   62      40/  6/  9 1017.3S
ATWATER BUOY     0000   58      10/  8/ 10 1017.6F
MILWAUKEE LAKESH 0000   59      20/ 10/ 12   N/A
KENOSHA   LAKESH 0000   58      20/ 14/ 17 1015.6F
$$

TC  - TEMPERATURE IN CELSIUS
VSB - VISIBILITY IN STATUTE MILES
WCI - WIND CHILL INDEX
HX  - HEAT INDEX



USA.gov is the U.S. government's official web portal to all federal, state and local government web resources and services.